User: anonymous   Login
Location: Unspecified
(0.0000°N, 0.0000°E)
Time: 09:18:39
(UTC+00:00)
Language:

COSMOS 2467 - Orbit

View from above orbital plane
View from above orbital plane
View from above satellite
View from above satellite

Ground track
Ground track

The orbit data is extracted from the following two-line orbital elements,

1 37152U 10043A   17268.75247059  .00000002  00000-0 -55730-4 0  9996
2 37152  82.4536 258.0394 0000678  25.1265 334.9842 12.42873357319706
Epoch (UTC): 25 September 2017 18:03:33
Eccentricity: 0.0000678
inclination: 82.4536°
perigee height: 1494 km
apogee height: 1495 km
right ascension of ascending node: 258.0394°
argument of perigee: 25.1265°
revolutions per day: 12.42873357
mean anomaly at epoch: 334.9842°
orbit number at epoch: 31970

The dashed part of the orbit path shows where the satellite is in the earth's shadow,  

DLR